GW7188 Weather Reports


time (UTC)temp
C
wind
direction
speed
KPH
gust
KPH
rain 1hr
cm
rain 24hr
cm
rain mn
cm
humidity
%
barometer
mb
20260510230830 19 40 4.8 9.7 0.00 0.00 0.00 36 1021.2
20260510230329 19 16 4.8 9.7 0.00 0.00 0.00 36 1021.1
20260510225830 20 21 6.4 9.7 0.00 0.00 0.00 36 1021.2
20260510225330 20 63 0.0 1.6 0.00 0.00 0.00 36 1021.2
20260510224829 20 25 6.4 9.7 0.00 0.00 0.00 35 1021.2
20260510224329 20 61 3.2 4.8 0.00 0.00 0.00 37 1021.2
20260510223830 20 38 3.2 6.4 0.00 0.00 0.00 34 1021.4
20260510223329 20 25 6.4 9.7 0.00 0.00 0.00 36 1021.4
20260510222830 20 6 3.2 8.0 0.00 0.00 0.00 35 1021.5
20260510222329 20 345 4.8 8.0 0.00 0.00 0.00 36 1021.4
20260510221830 20 30 3.2 6.4 0.00 0.00 0.00 35 1021.4
20260510221329 20 38 3.2 11.3 0.00 0.00 0.00 36 1021.5
20260510220829 20 57 4.8 8.0 0.00 0.00 0.00 37 1021.4
20260510220329 20 36 6.4 12.9 0.00 0.00 0.00 36 1021.5
20260510215829 20 29 1.6 6.4 0.00 0.00 0.00 36 1021.4
20260510215329 20 35 6.4 9.7 0.00 0.00 0.00 37 1021.2
20260510214830 20 40 8.0 12.9 0.00 0.00 0.00 34 1021.2
20260510214329 20 34 6.4 9.7 0.00 0.00 0.00 38 1021.2
20260510213830 20 33 4.8 9.7 0.00 0.00 0.00 36 1021.0
20260510213332 20 72 3.2 6.4 0.00 0.00 0.00 38 1021.1
20260510212830 20 38 6.4 8.0 0.00 0.00 0.00 36 1021.2
20260510212330 20 31 3.2 8.0 0.00 0.00 0.00 37 1021.1
20260510211829 20 4 3.2 6.4 0.00 0.00 0.00 36 1021.2
20260510211329 19 24 6.4 9.7 0.00 0.00 0.00 36 1021.2
20260510210829 19 19 4.8 9.7 0.00 0.00 0.00 37 1021.4
20260510210330 19 53 3.2 8.0 0.00 0.00 0.00 37 1021.2
20260510205829 19 31 8.0 11.3 0.00 0.00 0.00 35 1021.2
20260510205330 19 18 6.4 12.9 0.00 0.00 0.00 38 1021.6
20260510204829 18 20 6.4 9.7 0.00 0.00 0.00 37 1021.5
20260510204329 18 35 3.2 4.8 0.00 0.00 0.00 40 1021.5
20260510203830 18 21 6.4 9.7 0.00 0.00 0.00 38 1021.5
20260510203329 18 37 6.4 11.3 0.00 0.00 0.00 39 1021.5
20260510202829 18 10 4.8 6.4 0.00 0.00 0.00 40 1021.6
20260510202329 18 11 3.2 8.0 0.00 0.00 0.00 40 1021.5
20260510201830 18 20 9.7 11.3 0.00 0.00 0.00 37 1021.6
20260510201330 18 30 6.4 11.3 0.00 0.00 0.00 40 1021.6
20260510200829 18 0 1.6 4.8 0.00 0.00 0.00 39 1021.6
20260510200329 18 24 4.8 8.0 0.00 0.00 0.00 40 1021.6
20260510195829 18 314 3.2 6.4 0.00 0.00 0.00 38 1021.6
20260510195329 18 32 3.2 6.4 0.00 0.00 0.00 39 1021.8
20260510194829 18 38 4.8 8.0 0.00 0.00 0.00 38 1021.8
20260510194329 18 15 6.4 9.7 0.00 0.00 0.00 37 1021.9
20260510193831 18 20 8.0 11.3 0.00 0.00 0.00 38 1022.0
20260510193329 18 42 4.8 11.3 0.00 0.00 0.00 38 1022.0
20260510192829 18 22 4.8 9.7 0.00 0.00 0.00 37 1022.0
20260510192330 18 18 4.8 8.0 0.00 0.00 0.00 39 1021.9
20260510191829 18 29 4.8 6.4 0.00 0.00 0.00 38 1021.9
20260510190848 18 40 6.4 11.3 0.00 0.00 0.00 38 1022.0
20260510190330 18 33 6.4 9.7 0.00 0.00 0.00 36 1022.0
20260510185830 18 50 3.2 6.4 0.00 0.00 0.00 37 1022.0
20260510185330 18 349 3.2 6.4 0.00 0.00 0.00 38 1021.9
20260510184829 18 356 3.2 6.4 0.00 0.00 0.00 37 1021.9
20260510184329 18 46 3.2 4.8 0.00 0.00 0.00 38 1021.9
20260510183829 18 36 4.8 6.4 0.00 0.00 0.00 37 1021.8
20260510183330 18 17 3.2 6.4 0.00 0.00 0.00 37 1021.8
20260510182829 18 16 1.6 6.4 0.00 0.00 0.00 37 1021.9
20260510182329 18 45 0.0 3.2 0.00 0.00 0.00 40 1021.9
20260510181830 18 20 6.4 8.0 0.00 0.00 0.00 39 1022.0
20260510181329 18 19 4.8 6.4 0.00 0.00 0.00 38 1022.1
20260510180829 17 40 3.2 6.4 0.00 0.00 0.00 38 1022.1
20260510180333 17 20 4.8 6.4 0.00 0.00 0.00 39 1022.1
20260510175829 17 15 6.4 11.3 0.00 0.00 0.00 37 1022.1
20260510175329 17 27 4.8 8.0 0.00 0.00 0.00 41 1022.2
20260510174829 17 199 0.0 3.2 0.00 0.00 0.00 39 1022.4
20260510174329 17 36 6.4 9.7 0.00 0.00 0.00 39 1022.4
20260510173829 17 49 3.2 6.4 0.00 0.00 0.00 39 1022.3
20260510173329 17 21 6.4 6.4 0.00 0.00 0.00 38 1022.2
20260510172829 17 18 6.4 12.9 0.00 0.00 0.00 39 1022.0
20260510172329 17 14 6.4 11.3 0.00 0.00 0.00 38 1022.0
20260510171830 17 25 4.8 8.0 0.00 0.00 0.00 39 1022.1
20260510171329 17 24 4.8 11.3 0.00 0.00 0.00 39 1022.1
20260510170829 17 33 4.8 9.7 0.00 0.00 0.00 40 1022.1
20260510170329 17 22 6.4 9.7 0.00 0.00 0.00 40 1022.1
20260510165829 17 21 9.7 12.9 0.00 0.00 0.00 40 1022.0
20260510165330 17 40 8.0 9.7 0.00 0.00 0.00 39 1022.0
20260510164829 17 27 4.8 9.7 0.00 0.00 0.00 39 1021.9
20260510164330 17 41 9.7 14.5 0.00 0.00 0.00 39 1021.8
20260510163829 17 21 4.8 8.0 0.00 0.00 0.00 39 1021.9
20260510163329 17 47 3.2 8.0 0.00 0.00 0.00 39 1022.0
20260510162829 17 16 6.4 11.3 0.00 0.00 0.00 40 1021.9
20260510162329 17 23 8.0 14.5 0.00 0.00 0.00 41 1021.9
20260510161830 17 81 3.2 9.7 0.00 0.00 0.00 41 1021.8
20260510161330 16 19 1.6 4.8 0.00 0.00 0.00 41 1021.8
20260510160830 16 22 6.4 9.7 0.00 0.00 0.00 41 1021.7
20260510160329 16 25 3.2 6.4 0.00 0.00 0.00 43 1021.7
20260510155829 16 28 4.8 9.7 0.00 0.00 0.00 41 1021.7
20260510155329 16 24 6.4 11.3 0.00 0.00 0.00 40 1021.8
20260510154830 16 36 8.0 11.3 0.00 0.00 0.00 41 1021.7
20260510154329 16 36 4.8 11.3 0.00 0.00 0.00 41 1021.7
20260510153829 16 21 6.4 12.9 0.00 0.00 0.00 42 1021.6
20260510153329 16 23 4.8 8.0 0.00 0.00 0.00 44 1021.7
20260510152829 15 16 6.4 9.7 0.00 0.00 0.00 43 1021.5
20260510152330 15 43 4.8 8.0 0.00 0.00 0.00 44 1021.6
20260510151829 15 47 3.2 4.8 0.00 0.00 0.00 45 1021.4
20260510151329 15 32 6.4 12.9 0.00 0.00 0.00 43 1021.2
20260510150829 15 38 6.4 11.3 0.00 0.00 0.00 44 1021.1
20260510150330 15 98 6.4 11.3 0.00 0.00 0.00 43 1021.1
20260510145830 15 83 3.2 8.0 0.00 0.00 0.00 45 1021.1
20260510145330 15 34 6.4 9.7 0.00 0.00 0.00 43 1021.2
20260510144830 15 85 6.4 9.7 0.00 0.00 0.00 44 1021.1
20260510144330 15 80 4.8 6.4 0.00 0.00 0.00 47 1021.1
20260510143829 14 56 4.8 8.0 0.00 0.00 0.00 45 1021.1
20260510143330 14 89 3.2 6.4 0.00 0.00 0.00 47 1021.4
20260510142829 14 46 1.6 3.2 0.00 0.00 0.00 47 1021.4
20260510142329 14 41 3.2 6.4 0.00 0.00 0.00 45 1021.4
20260510141829 14 31 3.2 6.4 0.00 0.00 0.00 47 1021.4
20260510141330 14 32 3.2 6.4 0.00 0.00 0.00 45 1021.4
20260510140829 14 31 4.8 11.3 0.00 0.00 0.00 45 1021.4
20260510140330 14 31 6.4 8.0 0.00 0.00 0.00 47 1021.4
20260510135830 13 37 6.4 9.7 0.00 0.00 0.00 45 1021.4
20260510135329 13 38 3.2 4.8 0.00 0.00 0.00 47 1021.2
20260510134829 13 33 4.8 6.4 0.00 0.00 0.00 47 1021.1
20260510134329 13 38 6.4 12.9 0.00 0.00 0.00 46 1021.0
20260510133829 13 23 6.4 11.3 0.00 0.00 0.00 47 1021.0
20260510133330 13 20 6.4 9.7 0.00 0.00 0.00 46 1021.0
20260510132830 13 23 3.2 6.4 0.00 0.00 0.00 48 1020.9
20260510132330 13 33 4.8 8.0 0.00 0.00 0.00 48 1020.8
20260510131829 13 25 6.4 9.7 0.00 0.00 0.00 47 1020.8
20260510131329 13 25 8.0 12.9 0.00 0.00 0.00 48 1020.8
20260510130829 13 18 4.8 9.7 0.00 0.00 0.00 49 1020.7
20260510130329 13 27 3.2 9.7 0.00 0.00 0.00 48 1020.5
20260510125830 13 39 6.4 12.9 0.00 0.00 0.00 48 1020.4
20260510125329 13 25 8.0 14.5 0.00 0.00 0.00 49 1020.3
20260510124829 13 12 6.4 9.7 0.00 0.00 0.00 49 1020.1
20260510124331 13 32 6.4 11.3 0.00 0.00 0.00 50 1019.9
20260510123829 13 44 1.6 4.8 0.00 0.00 0.00 50 1019.8
20260510123330 13 31 6.4 12.9 0.00 0.00 0.00 48 1019.8
20260510122830 13 30 6.4 12.9 0.00 0.00 0.00 48 1019.7
20260510122331 13 30 6.4 9.7 0.00 0.00 0.00 48 1019.6
20260510121830 13 23 8.0 11.3 0.00 0.00 0.00 48 1019.5
20260510121329 13 42 3.2 9.7 0.00 0.00 0.00 48 1019.4
20260510120829 13 43 3.2 6.4 0.00 0.00 0.00 48 1019.2
20260510120329 13 30 3.2 8.0 0.00 0.00 0.00 48 1019.2
20260510115831 13 29 6.4 11.3 0.00 0.00 0.00 48 1019.1
20260510115330 13 27 4.8 6.4 0.00 0.00 0.00 49 1018.9
20260510114829 13 24 6.4 8.0 0.00 0.00 0.00 47 1018.7
20260510114329 13 35 6.4 11.3 0.00 0.00 0.00 47 1018.7
20260510113829 13 27 6.4 11.3 0.00 0.00 0.00 47 1018.7
20260510113329 13 24 3.2 8.0 0.00 0.00 0.00 47 1018.5
20260510112829 13 29 6.4 8.0 0.00 0.00 0.00 47 1018.5
20260510112330 13 28 6.4 9.7 0.00 0.00 0.00 47 1018.2
20260510111829 13 20 8.0 14.5 0.00 0.00 0.00 47 1018.1
20260510111329 13 32 6.4 14.5 0.00 0.00 0.00 47 1018.1
20260510110829 13 25 6.4 11.3 0.00 0.00 0.00 49 1018.2
20260510110329 13 23 6.4 9.7 0.00 0.00 0.00 49 1018.2
20260510105830 13 22 6.4 9.7 0.00 0.00 0.00 49 1017.9
20260510105330 13 39 4.8 11.3 0.00 0.00 0.00 49 1018.1
20260510104829 14 37 1.6 4.8 0.00 0.00 0.00 49 1017.8
20260510104329 14 26 8.0 11.3 0.00 0.00 0.00 48 1017.8
20260510103834 14 23 6.4 11.3 0.00 0.00 0.00 48 1017.7
20260510103329 14 32 8.0 12.9 0.00 0.00 0.00 48 1017.7
20260510102829 14 25 8.0 14.5 0.00 0.00 0.00 48 1017.7
20260510102329 14 35 4.8 8.0 0.00 0.00 0.00 48 1017.6
20260510101829 14 25 3.2 6.4 0.00 0.00 0.00 48 1017.5
20260510101329 14 21 6.4 8.0 0.00 0.00 0.00 48 1017.4
20260510100829 14 26 6.4 9.7 0.00 0.00 0.00 47 1017.3
20260510100329 15 61 4.8 6.4 0.00 0.00 0.00 47 1017.1
20260510095829 15 32 4.8 11.3 0.00 0.00 0.00 48 1017.0
20260510095329 15 50 4.8 9.7 0.00 0.00 0.00 49 1017.0
20260510094830 15 27 3.2 6.4 0.00 0.00 0.00 49 1016.8
20260510094329 15 42 4.8 9.7 0.00 0.00 0.00 49 1016.9
20260510093834 15 39 8.0 11.3 0.00 0.00 0.00 49 1016.8
20260510093329 15 37 6.4 12.9 0.00 0.00 0.00 50 1016.8
20260510092830 15 30 6.4 8.0 0.00 0.00 0.00 52 1017.0
20260510092329 15 22 8.0 9.7 0.00 0.00 0.00 53 1016.9
20260510091832 16 27 6.4 12.9 0.00 0.00 0.00 53 1016.9
20260510091329 16 25 6.4 11.3 0.00 0.00 0.00 53 1016.9
20260510090829 16 30 8.0 11.3 0.00 0.00 0.00 53 1016.7
20260510090330 16 39 8.0 11.3 0.00 0.00 0.00 54 1016.7
20260510085830 16 50 6.4 11.3 0.00 0.00 0.00 54 1016.6
20260510085331 16 36 3.2 4.8 0.00 0.00 0.00 55 1016.5
20260510084829 16 28 6.4 9.7 0.00 0.00 0.00 55 1016.4
20260510084329 16 31 6.4 11.3 0.00 0.00 0.00 56 1016.3
20260510083829 16 37 6.4 11.3 0.00 0.00 0.00 56 1016.3
20260510083329 16 25 4.8 8.0 0.00 0.00 0.00 57 1016.3
20260510082830 16 22 4.8 11.3 0.00 0.00 0.00 57 1016.2
20260510082330 16 24 4.8 8.0 0.00 0.00 0.00 57 1016.0
20260510081829 17 18 4.8 8.0 0.00 0.00 0.00 57 1015.9
20260510081329 17 29 6.4 12.9 0.00 0.00 0.00 57 1015.6
20260510080829 17 28 4.8 8.0 0.00 0.00 0.00 57 1015.7
20260510080329 17 21 6.4 8.0 0.00 0.00 0.00 58 1015.7
20260510075829 17 20 4.8 8.0 0.00 0.00 0.00 58 1015.7
20260510075329 17 20 3.2 8.0 0.00 0.00 0.00 58 1015.7
20260510074830 17 26 4.8 8.0 0.00 0.00 0.00 58 1015.7
20260510074330 17 24 4.8 6.4 0.00 0.00 0.00 58 1015.6
20260510073829 17 19 4.8 8.0 0.00 0.00 0.00 58 1015.7
20260510073330 17 34 1.6 3.2 0.00 0.00 0.00 58 1015.6
20260510072829 17 21 0.0 3.2 0.00 0.00 0.00 58 1015.5
20260510072329 17 35 3.2 4.8 0.00 0.00 0.00 57 1015.4
20260510071829 17 45 1.6 6.4 0.00 0.00 0.00 57 1015.4
20260510071330 17 37 3.2 4.8 0.00 0.00 0.00 57 1015.4
20260510070829 17 28 3.2 6.4 0.00 0.00 0.00 57 1015.4
20260510070330 17 20 1.6 3.2 0.00 0.00 0.00 58 1015.5
20260510065829 17 27 1.6 4.8 0.00 0.00 0.00 58 1015.4
20260510065334 17 17 3.2 6.4 0.00 0.00 0.00 58 1015.3
20260510064829 17 26 0.0 1.6 0.00 0.00 0.00 59 1015.2
20260510064329 17 0 0.0 0.0 0.00 0.00 0.00 59 1015.2
20260510063830 17 26 0.0 3.2 0.00 0.00 0.00 59 1015.1
20260510063330 17 86 0.0 3.2 0.00 0.00 0.00 60 1014.6
20260510062830 18 0 0.0 0.0 0.00 0.00 0.00 58 1014.7
20260510062329 18 28 3.2 4.8 0.00 0.00 0.00 57 1015.0
20260510061829 18 27 1.6 3.2 0.00 0.00 0.00 56 1015.1
20260510061329 18 70 0.0 3.2 0.00 0.00 0.00 58 1014.9
20260510060829 18 49 0.0 1.6 0.00 0.00 0.00 56 1014.9
20260510060330 18 41 1.6 6.4 0.00 0.00 0.00 56 1015.0
20260510055830 18 0 0.0 0.0 0.00 0.00 0.00 56 1015.0
20260510055329 18 41 3.2 4.8 0.00 0.00 0.00 56 1015.0
20260510054829 18 34 1.6 4.8 0.00 0.00 0.00 56 1015.0
20260510054329 18 27 3.2 6.4 0.00 0.00 0.00 56 1015.0
20260510053829 18 27 3.2 6.4 0.00 0.00 0.00 57 1015.0
20260510053329 18 42 0.0 3.2 0.00 0.00 0.00 59 1014.7
20260510052830 18 33 3.2 8.0 0.00 0.00 0.00 59 1014.6
20260510052330 18 36 3.2 6.4 0.00 0.00 0.00 59 1014.6
20260510051829 18 18 1.6 3.2 0.00 0.00 0.00 60 1014.6
20260510051330 18 0 0.0 0.0 0.00 0.00 0.00 63 1014.5
20260510050830 18 0 0.0 0.0 0.00 0.00 0.00 63 1014.5
20260510050331 18 0 0.0 0.0 0.00 0.00 0.00 62 1014.3
20260510045829 18 15 0.0 3.2 0.00 0.00 0.00 62 1014.2
20260510045329 18 240 0.0 1.6 0.00 0.00 0.00 62 1014.1
20260510044829 18 209 0.0 0.0 0.00 0.00 0.00 63 1014.1
20260510044329 18 193 0.0 0.0 0.00 0.00 0.00 62 1013.9
20260510043829 18 0 0.0 0.0 0.00 0.00 0.00 62 1013.7
20260510043329 19 0 0.0 0.0 0.00 0.00 0.00 61 1013.6
20260510042359 20 199 1.6 3.2 0.00 0.00 0.00 58 1013.3
20260510041829 20 0 0.0 0.0 0.00 0.00 0.00 55 1013.0
20260510041329 20 0 0.0 0.0 0.00 0.00 0.00 53 1012.8
20260510040829 20 60 0.0 0.0 0.00 0.00 0.00 53 1012.6
20260510040329 20 27 1.6 4.8 0.00 0.00 0.00 52 1012.6
20260510035830 20 47 0.0 3.2 0.00 0.00 0.00 52 1012.4
20260510035330 20 49 3.2 8.0 0.00 0.00 0.00 52 1012.4
20260510034829 20 40 3.2 6.4 0.00 0.00 0.00 53 1012.4
20260510034329 20 26 3.2 4.8 0.00 0.00 0.00 53 1012.4
20260510033830 20 21 1.6 4.8 0.00 0.00 0.00 53 1012.4
20260510033329 20 20 3.2 6.4 0.00 0.00 0.00 53 1012.3
20260510032829 20 24 4.8 11.3 0.00 0.00 0.00 54 1012.1
20260510032329 20 24 4.8 6.4 0.00 0.00 0.00 54 1012.1
20260510031829 20 0 0.0 0.0 0.00 0.00 0.00 54 1012.2
20260510031330 20 29 3.2 4.8 0.00 0.00 0.00 55 1012.1
20260510030830 20 35 3.2 4.8 0.00 0.00 0.00 55 1012.2
20260510030330 20 35 0.0 1.6 0.00 0.00 0.00 55 1012.2
20260510025829 20 0 0.0 0.0 0.00 0.00 0.00 53 1012.5
20260510025329 20 0 0.0 0.0 0.00 0.00 0.00 53 1012.5
20260510024829 20 0 0.0 0.0 0.00 0.00 0.00 53 1012.5
20260510024329 20 0 0.0 0.0 0.00 0.00 0.00 53 1012.2
20260510023829 20 0 0.0 0.0 0.00 0.00 0.00 53 1012.1
20260510023329 20 0 0.0 0.0 0.00 0.00 0.00 52 1012.0
20260510022829 21 0 0.0 0.0 0.00 0.00 0.00 52 1011.8
20260510022329 21 15 0.0 0.0 0.00 0.00 0.00 51 1011.6
20260510021829 21 25 1.6 3.2 0.00 0.00 0.00 51 1011.2
20260510021329 21 31 1.6 4.8 0.00 0.00 0.00 51 1011.1
20260510020832 21 26 1.6 4.8 0.00 0.00 0.00 51 1011.2
20260510020329 21 37 3.2 4.8 0.00 0.00 0.00 51 1011.2
20260510015830 21 20 3.2 4.8 0.00 0.00 0.00 51 1011.0
20260510015330 21 21 1.6 6.4 0.00 0.00 0.00 51 1010.8
20260510014829 21 24 4.8 6.4 0.00 0.00 0.00 50 1010.8
20260510014330 21 23 3.2 4.8 0.00 0.00 0.00 50 1010.7
20260510013832 22 37 1.6 4.8 0.00 0.00 0.00 49 1010.6
20260510013329 22 28 3.2 4.8 0.00 0.00 0.00 49 1010.6
20260510012830 22 41 0.0 1.6 0.00 0.00 0.00 49 1010.5
20260510012330 22 43 1.6 4.8 0.00 0.00 0.00 48 1010.5
20260510011830 22 31 3.2 6.4 0.00 0.00 0.00 47 1010.3
20260510011330 22 32 4.8 8.0 0.00 0.00 0.00 47 1010.3
20260510010829 22 41 3.2 6.4 0.00 0.00 0.00 47 1010.2
20260510010329 23 23 6.4 9.7 0.00 0.00 0.00 46 1010.2
20260510005829 23 28 3.2 6.4 0.00 0.00 0.00 47 1010.2
20260510005329 23 35 1.6 6.4 0.00 0.00 0.00 46 1010.1
20260510004834 23 20 3.2 6.4 0.00 0.00 0.00 45 1010.0
20260510004329 23 11 3.2 9.7 0.00 0.00 0.00 45 1009.9
20260510003830 24 8 3.2 8.0 0.00 0.00 0.00 44 1009.8
20260510003329 24 25 3.2 4.8 0.00 0.00 0.00 43 1009.7
20260510002829 25 19 3.2 6.4 0.00 0.00 0.00 43 1009.6
20260510002329 25 17 6.4 14.5 0.00 0.00 0.00 42 1009.6
20260510001830 25 15 4.8 12.9 0.00 0.00 0.00 42 1009.5
20260510001329 26 43 0.0 3.2 0.00 0.00 0.00 42 1009.3
20260510000830 26 7 0.0 3.2 0.00 0.00 0.00 41 1009.2
20260510000329 26 268 1.6 6.4 0.00 0.00 0.00 40 1009.3
20260509235829 26 55 1.6 3.2 0.00 0.00 0.00 41 1009.2
20260509235329 27 344 0.0 3.2 0.00 0.00 0.00 43 1009.1
20260509234829 27 0 0.0 0.0 0.00 0.00 0.00 44 1009.0
20260509234330 27 200 0.0 3.2 0.00 0.00 0.00 42 1009.0
20260509233829 28 202 3.2 6.4 0.00 0.00 0.00 41 1008.9
20260509233330 28 0 0.0 0.0 0.00 0.00 0.00 42 1008.9
20260509232829 27 254 1.6 3.2 0.00 0.00 0.00 41 1008.9
20260509232329 27 206 0.0 1.6 0.00 0.00 0.00 42 1009.0
20260509231830 27 270 1.6 4.8 0.00 0.00 0.00 40 1008.9
20260509231331 26 267 3.2 6.4 0.00 0.00 0.00 40 1008.9